Погода в Вологде

Хотите узнать прогноз погоды в Вологде? Тогда Вам сюда: Погода в Вологде

Поиск расширенной информации на нашем сайте:

Полезная информация:

Новости сайта



02.01.2020
Опубликован Долгосрочный прогноз погоды по городам России и ближнего зарубежья на январь 2020 года.
Карты: Прогноз на январь и февраль 2020 года, Сравнение прогнозируемой аномалии приземной температуры воздуха на январь 2020 года по разным моделям.




Погода в Вологде - сегодня

Время (UTC), дата Ветер
(°,м/с) 
Видим.   Явления Облачность Т
(°С)
Тd
(°С)
f(%) Тe
(°С)
Pmin
(гПа)
dP
(гПа)
Po
(мм)
O2
(г/м3)
Тmin Tmax R s Состояние
почвы
12 09.08.20 030 (СВ) 20000 м    8/6 600 м кучево-дожд., средняя 
[Cb cap|Ac trans]
+20.4 +10.4 53 +22  1016.7  -1  751  280           
15 09.08.20 060 (СВ) 20000 м    4/4 600 м 
[Cu hum]
+18.9 +9.1 53 +20  1016.2  -0.6  751  281    +21.1       
18 09.08.20 060 (СВ) 20000 м    8/6 600 м средняя 
[Sc|Ac trans]
+13.9 +8.1 68 +14  1017  0.5  751  287           
21 09.08.20 тихо ()   20000 м    8/8 600 м 
[Sc]
+10.5 +9.1 91 +11  1017.1  -0.1  751  290           
00 10.08.20 200 (Ю) 4000 м  дымка  8/8 600 м 
[Sc]
+8.7 +7.6 93 +10  1016.7  -0.4  751  292           
03 10.08.20 190 (Ю) 20000 м    9/9 720 м 
[Sc]
+11.8 +9.9 88 +14  1015.9  -0.7  750  288  +8.2        сухая 
06 10.08.20 180 (Ю) 20000 м    9/8 600 м средняя 
[Sc|Ac trans]
+15.2 +8.8 66 +16  1014.3  -1.4  749  284           
09 10.08.20 210 (ЮЗ) 20000 м    9/8 600 м кучево-дожд., средняя 
[Cb cap|Ac trans]
+18.3 +11.6 65 +22  1013.4  -0.7  749  280           
12 10.08.20 180 (Ю) 20000 м    9/6 600 м кучево-дожд., средняя, верхняя 
[Cb cap|Ac trans|Ci fib]
+20.7 +13.3 63 +27  1011.7  -1.5  747  277           
15 10.08.20 180 (Ю) 20000 м  {ливн. осадки}  9/8 600 м кучево-дожд., средняя 
[Cb cap|Ac trans]
+18.9 +15.1 79 +29  1011.2  -0.6  747  278    +21.6  0.5     
18 10.08.20 200 (Ю) 20000 м  {ливн. осадки}  9/8 600 м кучево-дожд., средняя 
[Cb cap|Ac trans]
+16.5 +14.3 87 +26  1011.2  -0.1  747  281           
21 10.08.20 330 (СЗ) 20000 м  {ливн. осадки}  8/6 600 м средняя 
[Sc|Ac trans]
+15.6 +10.1 70 +17  1011.2  -0.1  747  283           
00 11.08.20 330 (СЗ) 10 км  слаб. ливневой дождь  9/8 600 м кучево-дожд., средняя 
[Cb cap|Ac trans]
+13.6 +11 84 +17  1011.8  0.5  747  285           
03 11.08.20 320 (СЗ) 20000 м  {ливн. осадки}  8/6 600 м средняя 
[Sc|Ac trans]
+12.4 +11 91 +17  1011.8  -0.1  747  286  +12.4    0.8    влажная 
06 11.08.20 320 (СЗ) 20000 м  {ливн. осадки}  6/4 600 м средняя 
[Sc|Ac trans]
+16 +11.7 76 +20  1011.7  0.1  747  282           
09 11.08.20 300 (СЗ) 20000 м    8/6 600 м средняя 
[Sc|Ac trans]
+18 +9.5 58 +20  1011.4  -0.2  747  281           
12 11.08.20 320 (СЗ) 20000 м    8/6 600 м средняя 
[Sc|Ac trans]
+19.3 +9.2 52 +20  1011.5  0.2  747  280           
15 11.08.20 330 (СЗ) 20000 м    9/9 600 м кучево-дожд. 
[Cb cap]
+17.3 +10.3 63 +20  1011.5  -0.1  747  281    +19.8       
18 11.08.20 310 (СЗ) 20000 м    9/9 600 м кучево-дожд. 
[Cb cap]
+13.9 +11.6 86 +17  1012  0.3  747  284           
21 11.08.20 010 (С) 10 км  слаб. ливневой дождь  10/10 300 м кучево-дожд. 
[Cb cap]
+13.3 +12 92 +17  1012  747  285           
00 12.08.20 020 (С) 10 км  слаб. дождь{ливн. осадки}  10/8 300 м средняя 
[Frnb|As op]
+13 +11.7 92 +17  1011.6  -0.4  747  285           
03 12.08.20 030 (СВ) 10 км  слаб. дождь  10/8 360 м средняя 
[Frnb|As op]
+12.5 +11.1 91 +14  1012.7  748  286  +12.4    13    влажная 
06 12.08.20 020 (С) 20000 м  {дождь}  10/10 360 м 
[Sc]
+12.5 +10.6 88 +14  1013.8  1.1  749  286           
09 12.08.20 020 (С) 10 км  слаб. дождь  10/10 400 м 
[Sc]
+12.3 +10.8 91 +13  1014.8  749  287           
12 12.08.20 030 (СВ) 10 км  слаб. дождь  10/10 500 м 
[Sc]
+13.1 +11.1 88 +15  1015.5  0.7  750  286           
Время (UTC), дата Ветер
(°,м/с) 
Видим.   Явления Облачность Т
(°С)
Тd
(°С)
f(%) Тe
(°С)
Pmin
(гПа)
dP
(гПа)
Po
(мм)
O2
(г/м3)
Тmin Tmax R s Состояние
почвы

Для получения пояснительной информации подведите курсор к названию столбца.

ПОГОДА в Вологде - архив

Всё, что Вы хотите узнать о погоде в Вологде - удобно и подробно!

Выберите нужную дату (начиная с 1 января 2019* года) и нажмите кнопку "Найти".
Будут отображены архивные сводки погоды по пункту Вологда, начиная с указанной даты.


Отображать данные в формате CSV (для использования в таблицах Excel)


Внимание! Наш архив погоды предназначен исключительно для личного некоммерческого использования в познавательных целях. Если Вам необходимы официальные справки о состоянии погоды (для производственных, юридических, коммерческих и т.п. целей), обращайтесь в органы Росгидромета.

*Примечание: данная дата относится к архиву по метеостанциям СССР (Россия, СНГ, Балтия).
Архив по метеостанциям Зарубежной Европы и Азии (кроме Китая) хранится 10 дней, по другим регионам земного шара (Китай, Африка, Америка, Австралия, Океания) - 1 день.

Вологда - район местоположения метеостанции


Название, широта, долгота, высота метеостанции:
Вологда (город) 59.3°ш. 39.9°д. 130 м над ур. моря [Российская Федерация]

Дополнительная информация

В oтличие oт бoльшинства пoгoдных сайтoв мы публикуем пoдрoбную метеoинфoрмацию в детальнoм прoфессиoнальнoм фoрмате.

Характеристики температуры и влажнoсти вoздуха измеряются на высoте 2 м в тени вдали oт зданий и деревьев.
Скoрoсть ветра измеряется на высoте 10 м (на урoвне рoста челoвека скoрoсть ветра ниже в 1.5-2 раза). Если метеoстанция нахoдится в гoрoде или в лесу, тo скoрoсть ветра занижена на 2-4 м/с пo сравнению с oткрытым местoм. Скoрoсть ветра над акватoриями крупных рек и oзёр, а также на вершинах хoлмoв на 2-5 м/с выше, чем в oбычных услoвиях.
Атмoсфернoе давление в разных тoчках местнoсти мoжет значительнo oтличаться oт давления на метеoстанции, в зависимoсти oт услoвий рельефа (при пoдъёме на 10 м давление пoнижается примернo на 1 мм рт.ст.).